Simultaneous Nadir Overpasses (SNOs) Predictions

Prediction of SNOs between LANDSAT-8 and NOAA-19 Satellite Orbit:

Table of predicted SNOs for the next 14.0 days since TLE Epoch: 4/23/2022
Index Date (LANDSAT-8) Time (LANDSAT-8) Lat,Lon (LANDSAT-8) SZA (LANDSAT-8 ) Date (NOAA-19) Time (NOAA-19) Lat,Lon (NOAA-19) SZA (NOAA-19 ) Distance(km) Time Diff (sec)
1 04/24/2022 14:31:42 80.74, -2.99 69.50 04/24/2022 14:30:51 80.76, -2.83 69.51 3.24 51
2 04/24/2022 15:21:09 -80.74, 164.61 110.52 04/24/2022 15:21:55 -80.75, 164.76 110.48 2.70 46
3 04/26/2022 20:54:51 80.75, -98.66 68.80 04/26/2022 20:54:50 80.76, -98.78 68.79 2.12 1
4 04/29/2022 02:28:34 -80.76, -2.07 111.90 04/29/2022 02:27:54 -80.77, -2.19 111.92 2.39 40
5 04/29/2022 03:18:00 80.76, 165.59 68.10 04/29/2022 03:18:48 80.75, 165.60 68.12 0.66 48
6 05/01/2022 08:51:43 -80.75, -97.88 112.59 05/01/2022 08:51:52 -80.76, -97.96 112.58 1.67 9
7 05/03/2022 14:25:24 80.77, -1.09 66.80 05/03/2022 14:24:46 80.76, -0.99 66.79 2.27 38
8 05/03/2022 15:14:52 -80.74, 166.23 113.27 05/03/2022 15:15:50 -80.76, 166.21 113.23 1.65 58



Historial Predications of SNOs between LANDSAT-8 and NOAA-19
